Regional Weather Roundup
Issued by NWS Sterling, VA

Home | Current Version | Previous Version | Text Only | Print | Product List | Glossary Off
Versions: 1 2 3 4 5 6 7 8 9 10 11 12 13 14 15 16 17 18 19 20 21 22 23 24 25 26 27 28 29 30 31 32 33 34 35 36 37 38 39 40 41 42 43 44 45 46 47 48 49 50

000
ASUS41 KLWX 170211
RWRLWX

REGIONAL WEATHER ROUNDUP
NATIONAL WEATHER SERVICE BALTIMORE MD/WASHINGTON DC
1000 PM EDT MON OCT 16 2017

Note: "FAIR" indicates few or no clouds below 12,000 feet
with no significant weather and/or obstructions to visibility.
 TC=TEMPERATURE CELSIUS

 * =Non NWS site. Station does not report precipitation (e.g. rain,
    snow, etc.), thunder, or fog.

DCZ001-MDZ009-015-VAZ040>042-051-053>054-170300-
WASHINGTON METRO

CITY           SKY/WX    TMP DP  RH WIND       PRES   REMARKS
WASHINGTON NAT CLEAR     57  37  47 NW14      30.23R
DULLES         CLEAR     53  36  52 NW8       30.24R
ANDREWS AFB    CLEAR     53  36  52 N7        30.21R
FT BELVOIR     CLEAR     50  40  69 NW8       30.23R
QUANTICO       CLEAR     52  44  74 NW6       30.24R
COLLEGE PARK*  CLEAR     52  37  57 NW3       30.22R
LEESBURG*      CLEAR     52  37  58 N7        30.26R
MANASSAS*      CLEAR     49  37  63 N7        30.25R
GAITHERSBURG*  CLEAR     46  40  79 CALM      30.24R

$$

MDZ006>007-011-014-170300-
BALTIMORE METRO

CITY           SKY/WX    TMP DP  RH WIND       PRES   REMARKS
BWI AIRPORT    CLEAR     51  38  60 NW5       30.21R
MD SCIENCE CTR   N/A     58  35  42 MISG      30.22R
MARTIN STATE   CLEAR     50  43  76 NW7       30.23R
ANNAPOLIS      CLEAR     59  44  57 VRB7      30.21R
FORT MEADE*    CLEAR     45  43  93 CALM      30.24R

$$

MDZ012-015-019>023-170300-
MARYLAND EASTERN SHORE

CITY           SKY/WX    TMP DP  RH WIND       PRES   REMARKS
OCEAN CITY     CLEAR     48  45  89 N5        30.19R
SALISBURY      CLEAR     49  45  86 N5        30.19R
CAMBRIDGE*     CLEAR     46  46 100 CALM      30.20R
EASTON*        CLEAR     48  45  87 CALM      30.24R

$$

MDZ017>025-170300-
SOUTHERN MARYLAND

CITY           SKY/WX    TMP DP  RH WIND       PRES   REMARKS
PATUXENT RIVER CLEAR     57  39  51 N14       30.20R
ST INIGOES     CLEAR     56  42  59 VRB5      30.20R
LEONARDTOWN*   NOT AVBL

$$

MDZ003>005-170300-
NORTH CENTRAL MARYLAND

CITY           SKY/WX    TMP DP  RH WIND       PRES   REMARKS
FREDERICK*     CLEAR     52  36  54 NW6       30.26R
HAGERSTOWN APT CLEAR     50  37  61 NW3       30.25R
WESTMINSTER*   CLEAR     52  36  54 NW6       30.22R

$$

MDZ501>502-170300-
WESTERN MARYLAND

CITY           SKY/WX    TMP DP  RH WIND       PRES   REMARKS
OAKLAND*       CLEAR     37  32  81 NW6       30.23R
CUMBERLAND*    CLEAR     52  37  58 N6        30.31R

$$

VAZ025>031-170300-
SHENANDOAH VALLEY

CITY           SKY/WX    TMP DP  RH WIND       PRES   REMARKS
WINCHESTER*    CLEAR     45  36  70 CALM      30.26R
FRONT ROYAL*   CLEAR     50  36  57 MISG      30.25R
LURAY*         CLEAR     52  37  58 N5        30.26R
NEW MARKET*    CLEAR     45  36  70 NW3       30.26R
STAUNTON*      CLEAR     48  37  65 NW5       30.28R
WAYNESBORO*    CLEAR     47  38  73 NW3       30.26R

$$

WVZ021-048>050-054>055-170300-
EASTERN WEST VIRGINIA PANHANDLE

CITY           SKY/WX    TMP DP  RH WIND       PRES   REMARKS
MARTINSBURG    CLEAR     51  35  54 NW5       30.25R
PETERSBURG*    CLEAR     41  39  93 CALM      30.29R

$$

VAZ036>039-050-170300-
CENTRAL FOOTHILLS

CITY           SKY/WX    TMP DP  RH WIND       PRES   REMARKS
CHARLOTTESVILL CLEAR     54  38  54 NW6       30.24R
CULPEPER*      CLEAR     46  38  74 CALM      30.25R
ORANGE*        CLEAR     45  39  81 CALM      30.24R
GORDONSVILLE*  CLEAR     53  40  62 NW5       30.23R
WARRENTON*     CLEAR     41  37  86 NW3       30.24R

$$

VAZ055>057-170300-
NORTH AND CENTRAL PIEDMONT

CITY           SKY/WX    TMP DP  RH WIND       PRES   REMARKS
FREDERICKSBRG* CLEAR     49  42  76 NW3       30.23R
STAFFORD*      CLEAR     44  40  86 CALM      30.27R

$$

NCZ024-NYZ072-PAZ021-071-VAZ022-071-170300-
OTHER REGIONAL OBSERVATIONS

CITY           SKY/WX    TMP DP  RH WIND       PRES   REMARKS
NEW YORK CITY  CLEAR     50  34  54 VRB6      30.22R
PHILADELPHIA   CLEAR     52  34  50 N9        30.21R
PITTSBURGH     CLEAR     48  34  58 N6        30.29R
ROANOKE        CLEAR     51  39  63 N6        30.28R
RICHMOND       CLEAR     50  43  77 N6        30.22R
RALEIGH        PTCLDY    56  47  71 NE7       30.21R

$$

ANZ530>537-170300-
MARINE OBSERVATIONS

STATION/POSITION TIME  TEMP    WIND        PRES
                       AIR SEA DIR/SP/G
                 (UTC) (F)     (DEG/KT/KT) (MB)
THOMAS PT LIGHT  0200   58 69  330/ 14/ 16   N/A
BALT KEY BRIDGE  0148   59     330/ 14/ 16 1022.7R
COVE POINT       0148   61     350/ 20/ 26 1023.2R
LEWISETTA        0148   61 67   10/ 12/ 19 1022.6R
SOLOMONS ISLAND  0148   57 71  340/ 12/ 14 1022.4R
PINEY POINT      0148           10/ 14/ 16   N/A

$$




USA.gov is the U.S. government's official web portal to all federal, state and local government web resources and services.